FREGAT DEB, 46243

Orbit data source: Space-Track

FREGAT DEB, 46243 is space debris in LEO originally from a launch on Mon, 18 Jul 2011 UTC launched from the Tyuratam Missile And Space Complex (TTMTR). Debris objects in space refer to the collection of defunct objects orbiting the Earth. Examples of debris include non-operational satellites, rocket bodies, and fragments generated from explosions, collisions, or faulty payload assembly.

Loading next visibility...
Identifier
46243, 2011-037KD
Orbit
LEO
Country
Flag of CISCIS
Related business
Manufacturer
Lavochkin
Mission
Spacecraft
Bus & Motor
Unknown
Mass
Unknown
Launch date (UTC)
2011-07-18 (14 years ago)
Launch vehicle
Unknown
Launch site
Tyuratam Missile And Space Complex (TTMTR)
Object type
Payload
Rocket body
Debris
Shape & HBR
Unknown shape, 1.1 m
Radar Cross Section
Small (<0.1 m²)

Expand to show TLE details & history
Last TLE update: 5 hours ago

TLE from 5 hours ago
0 FREGAT DEB
1 46243U 11037KD  25299.76789411  .00028960  00000-0  80990+0 0  9991
2 46243  52.0486 201.3233 1408420 340.2258  14.8750  9.99834284 54665
Epoch: 2025-10-26T18:25Z
TLE epoch observation values (Epoch: 2025-10-26T18:25:46.051Z)
Latitude
0.00005°
Longitude
-110.4979°
Altitude
1,500.023 km
Speed
7.578 km/s
True Right ascension
13h 25m 17s
True Declination
0° 00' 00"
Sunlit
Object was in daylight at epoch
Visualization orbit readout
Latitude
Unknown
Longitude
Unknown
Altitude
Unknown
Speed
Unknown
Apparent Right ascension
Unknown
Apparent Declination
Unknown
Sunlit
N/A
Visualization observer readout
Local Sidereal Time
18:42:05
Azimuth
Unknown
Elevation
Unknown
Doppler factor
Unknown
Orbital elements
Apogee altitude
4,005.71 km
Perigee altitude
1,441.846 km
Semi-major axis
9,101.915 km
Eccentricity
0.14084
Inclination
52.0486°
RAAN
201.3233°
Arg. of periapsis
340.2258°
True anomaly
19.85265°
Mean anomaly
14.875°
Eccentric anomaly
17.27078°
Mean motion
2.49945 °/min
Orbital period
144.03 mins
BSTAR
0.8099
Loading maneuver chart data...
Computing Atmospheric mass density...
Loading historical data...
Loading historical data...
Loading historical data...
Loading historical data...
Loading historical data...
Loading historical data...
Loading historical data...

Documentation

Showing up to 5 results
|